Home   Weather   Huntsville   Past weeks

Flag for USA Past Weather in Huntsville, Alabama, USA — Yesterday and Last 2 Weeks

Now
71 °F

Overcast.


Feels Like: 74 °F
Forecast: 60 / 68 °F
Wind: 15 mph from Southwest

Location: Huntsville International / Jones Field

Current Time: Jan 17, 2017 at 1:35:44 pm

Latest Report: Jan 17, 2017 at 12:53 pm


Visibility: 10 mi

Pressure: 30.05 "Hg

Humidity: 71%

Dew Point: 61 °F

Location of HuntsvilleLocation

Past Weather in Huntsville — Graph

°F

Huntsville Temperature Yesterday

Maximum temperature yesterday: 73 °F (at 12:53 pm)
Minimum temperature yesterday: 51 °F (at 12:53 am)
Average temperature yesterday: 62 °F

High & Low Weather Summary for the Past Weeks

 TemperatureHumidityPressure
High75 °F (Jan 14, 12:53 pm)100% (Jan 2, 11:11 am)30.80 "Hg (Jan 2, 11:11 am)
Low12 °F (Jan 8, 6:53 am)25% (Jan 9, 2:53 pm)29.77 "Hg (Jan 2, 7:53 pm)
Average51 °F75%30.22 "Hg
* Reported Jan 2 11:11 am — Jan 17 11:53 am, Huntsville, Weather by CustomWeather, © 2017

Note: Actual official high and low records may vary slightly from our data, if they occured in-between our weather recording intervals... More about our weather records

Advertising

Huntsville Weather History for the Previous 24 Hours

Scroll right to see more
 ConditionsComfort  
Time TempWeatherWind HumidityBarometerVisibility
11:53 am
Tue, Jan 17
69 °FMostly cloudy.15 mph79%30.07 "Hg10 mi
11:21 am68 °FLight rain. Cloudy.15 mph82%30.10 "Hg8 mi
10:53 am69 °FMostly cloudy.17 mph79%30.10 "Hg10 mi
9:53 am67 °FOvercast.14 mph85%30.12 "Hg10 mi
8:53 am68 °FMostly cloudy.13 mph82%30.11 "Hg10 mi
7:53 am65 °FOvercast.10 mph87%30.09 "Hg10 mi
7:26 am65 °FPartly sunny.10 mph85%30.10 "Hg10 mi
7:11 am64 °FBroken clouds.12 mph87%30.10 "Hg10 mi
6:53 am65 °FOvercast.13 mph85%30.09 "Hg10 mi
6:28 am65 °FOvercast.10 mph85%30.11 "Hg10 mi
5:53 am64 °FMostly cloudy.9 mph87%30.09 "Hg10 mi
4:53 am66 °FOvercast.12 mph78%30.09 "Hg10 mi
3:53 am66 °FMostly cloudy.14 mph81%30.08 "Hg10 mi
2:53 am66 °FMostly cloudy.13 mph81%30.09 "Hg10 mi
1:53 am67 °FMostly cloudy.15 mph79%30.10 "Hg10 mi
12:53 am66 °FPassing clouds.16 mph78%30.09 "Hg10 mi
11:53 pm
Mon, Jan 16
67 °FPassing clouds.15 mph71%30.09 "Hg10 mi
10:53 pm67 °FOvercast.13 mph63%30.10 "Hg10 mi
9:53 pm67 °FOvercast.15 mph61%30.11 "Hg10 mi
8:53 pm65 °FOvercast.12 mph68%30.11 "Hg10 mi
7:53 pm64 °FMostly cloudy.8 mph68%30.14 "Hg10 mi
6:53 pm61 °FPassing clouds.6 mph72%30.14 "Hg10 mi
5:53 pm64 °FPassing clouds.8 mph68%30.14 "Hg10 mi
4:53 pm67 °FBroken clouds.8 mph63%30.14 "Hg10 mi
3:53 pm70 °FMore clouds than sun.8 mph59%30.14 "Hg10 mi
2:53 pm71 °FMore clouds than sun.10 mph53%30.14 "Hg10 mi
1:53 pm72 °FPartly sunny.14 mph52%30.14 "Hg10 mi
Weather by CustomWeather, © 2017

See weather overviewHow to use our weather pages